Rochester International Airport Rochester US
ICAO: KRST
IATA: RST
Category: Large
Scheduled Services: Yes

Elevation: 1317 ft
TransAlt. 18000 ft.

Airport Communications:
APP/DEP:119.2
ATIS:120.5
CTAF:118.3
GND:121.9
PRINCETON RDO:122.45
TWR:118.3
UNICOM:122.95

KRST Zoom In..

Runways:

(A) RW 02 length 7301 ft width 150 ft
---- / hdg 25

(B) RW 13 length 9033 ft width 150 ft
ILS 109.10 / hdg 131

(C) RW 20 length 7301 ft width 150 ft
---- / hdg 205

(D) RW 31 length 9033 ft width 150 ft
ILS 108.50 / hdg 311

Location; KRST
Day. 04 / Time. 12.54 Zulu
* Altimeter: 29.89
* Temperature: -04° c. -24.8°f.
* Wind from: 300° Speed 10 kn.
Dewpoint: -06° c.
Visibility: 10 Statute Miles.
Clouds: Clear (automated report).

KRST 041254Z 30010KT 10SM CLR M04/M06 A2989 RMK AO2 SLP140 T10391061

Going to: --> -->


Wind From 300°
Speed 10 kn.

 
 
jpsmedia worldairports.se 2020   terms of use